Weather Roundup
Issued by NWS Chicago, IL

Home | Current Version | Previous Version | Text Only | Print | Product List | Glossary Off
Versions: 1 2 3 4 5 6 7 8 9 10 11 12 13 14 15 16 17 18 19 20 21 22 23 24 25 26 27 28 29 30 31 32 33 34 35 36 37 38 39 40 41 42 43 44 45 46 47 48 49 50

000
NZUS59 KLOT 240909
HRRLOT

CHICAGO AREA WEATHER ROUNDUP
NATIONAL WEATHER SERVICE CHICAGO/ROMEOVILLE IL
400 AM CDT SUN SEP 24 2017

NOTE: "FAIR" INDICATES FEW OR NO CLOUDS BELOW 12,000 FEET WITH NO
SIGNIFICANT WEATHER AND/OR OBSTRUCTIONS TO VISIBILITY.

* THESE STATIONS ARE NOT UNDER NWS QUALITY CONTROL. THEY ALSO MAY NOT
  REPORT WEATHER SUCH AS PRECIPITATION OR FOG.

ILZ005-006-012>014-019>023-241000-
NORTHEAST ILLINOIS

CITY           SKY/WX    TMP DP  RH WIND       PRES   REMARKS
OHARE          CLEAR     72  65  78 SE3       30.07S
MIDWAY         CLEAR     76  65  68 SE3       30.07S
AURORA         CLEAR     70  65  84 CALM      30.08S
LANSING*       CLEAR     66  65  96 CALM      30.08F
JOLIET*        CLEAR     71  66  85 CALM      30.08S
WAUKEGAN       CLEAR     66  66 100 CALM      30.07S FOG
DUPAGE AIRPORT CLEAR     66  64  93 CALM      30.07S FOG
WHEELING       CLEAR     69  67  93 CALM      30.09R
MORRIS*        CLEAR     69  65  87 E5        30.06S
LEWIS AIRPORT* CLEAR     69  64  84 SE6       30.08S
NORTHERLY ISL    N/A     70  67  90 CALM        N/A
$$

WIZ051-052-058>065-066-070>072-241000-
SOUTHEAST WISCONSIN

CITY           SKY/WX    TMP DP  RH WIND       PRES   REMARKS
MILWAUKEE      CLEAR     71  67  87 SE3       30.07S
KENOSHA*       CLEAR     68  65  90 SE3       30.08S
RACINE*        CLEAR     70  69  97 CALM      30.09F
WAUKESHA       CLEAR     64  61  88 CALM      30.10S
WEST BEND        N/A     63  63 100 CALM      30.08S
$$

INZ001>003-010>013-019-020-241000-
NORTHWEST INDIANA

CITY           SKY/WX    TMP DP  RH WIND       PRES   REMARKS
GARY*          CLEAR     66  63  91 CALM      30.09S
MICHIGAN CITY* NOT AVBL
RENSSELAER*    NOT AVBL
VALPARAISO     CLEAR     67  64  90 NE5       30.10R
$$

LMZ740>746-241000-
SOUTHERN LAKE MICHIGAN

STATION/POSITION TIME  SKY/WX   TEMP WIND        PRES    VSBY
                                AIR  DIR/SP/G
                 (UTC)          (F)  (DEG/KT/KT) (MB)    (MI)
HARRISON CRIB    0840            76  150/  8/  9   N/A
BURNHAM HARBOR   0900            70                N/A
CALUMET HARBOR   0848            74   CALM  /  1 1017.9R
BURNS HARBOR     0840            76  170/  4/  7 1019.0R
MICHIGAN CITY    0840            74  120/  9/ 10   N/A
$$

ABBREVIATIONS USED IN REMARKS
   TC - TEMPERATURE IN CELSIUS
  WCI - WIND CHILL INDEX
   HX - HEAT INDEX
  VSB - VISIBILITY
$$



USA.gov is the U.S. government's official web portal to all federal, state and local government web resources and services.